Location: Bovenkerk
(52.2915°N, 4.8336°E)
Time: 13:55:43
(UTC+00:00)

Cosmos 1850 Rocket - Visible Passes

Search period start: 06 August 2020 00:00
Search period end: 16 August 2020 00:00
Orbit: 754 x 785 km, 74.0° (Epoch: 05 August)

Date Brightness Start Highest point End Pass type
(mag) Time Alt. Az. Time Alt. Az. Time Alt. Az.
06 Aug 6.3 00:45:22 10° W 00:49:02 19° NW 00:52:43 10° N visible
06 Aug 5.8 20:46:44 12° ESE 20:48:17 13° E 20:50:38 10° ENE visible
06 Aug 3.9 22:27:00 33° S 22:29:28 74° ESE 22:34:45 10° NNE visible
07 Aug 5.9 00:07:47 10° WSW 00:12:08 25° NW 00:16:28 10° N visible
07 Aug 4.3 21:50:42 29° SSE 21:53:02 48° ESE 21:58:07 10° NE visible
07 Aug 5.4 23:30:58 12° WSW 23:35:20 34° NW 23:40:09 10° NNE visible
08 Aug 6.8 01:17:55 10° NW 01:19:10 11° NNW 01:20:24 10° NNW visible
08 Aug 4.8 21:14:18 22° SE 21:16:42 32° ESE 21:21:19 10° NE visible
08 Aug 4.8 22:54:33 16° SW 22:58:37 49° WNW 23:03:46 10° NNE visible
09 Aug 6.6 00:39:21 10° WNW 00:42:04 14° NW 00:44:47 10° N visible
09 Aug 5.4 20:37:49 15° SE 20:40:27 21° E 20:44:18 10° NE visible
09 Aug 4.2 22:18:05 18° SW 22:22:00 73° WNW 22:27:18 10° NNE visible
10 Aug 6.4 00:01:26 10° W 00:05:05 18° NW 00:08:42 10° N visible
10 Aug 5.8 20:01:54 10° ESE 20:04:18 13° E 20:06:41 10° ENE visible
10 Aug 3.9 21:41:29 18° SSW 21:45:29 75° ESE 21:50:46 10° NNE visible
10 Aug 6.1 23:23:51 10° W 23:28:10 25° NW 23:32:29 10° N visible
11 Aug 4.2 21:04:42 14° S 21:09:04 49° ESE 21:14:08 10° NE visible
11 Aug 5.5 22:46:33 10° WSW 22:51:22 34° NW 22:56:10 10° NNE visible
12 Aug 7.0 00:34:05 10° NW 00:35:12 11° NNW 00:36:19 10° NNW visible
12 Aug 4.8 20:28:04 10° SSE 20:32:42 32° ESE 20:37:21 10° NE visible
12 Aug 4.9 22:09:31 10° SW 22:14:39 49° WNW 22:19:46 10° NNE visible
12 Aug 6.8 23:55:27 10° WNW 23:58:07 14° NW 00:00:46 10° N visible
13 Aug 5.3 19:52:36 10° SE 19:56:28 21° E 20:00:20 10° NE visible
13 Aug 4.2 21:32:44 10° SSW 21:38:02 72° WNW 21:43:19 10° NNE visible
13 Aug 6.6 23:17:31 10° W 23:21:07 18° NW 23:24:42 10° N visible
14 Aug 3.9 20:56:13 10° SSW 21:01:30 76° ESE 21:06:47 10° NNE visible
14 Aug 6.2 22:39:55 10° W 22:44:12 24° NW 22:48:29 10° N visible
15 Aug 4.2 20:19:59 10° S 20:25:04 50° ESE 20:30:09 10° NNE visible
15 Aug 5.7 22:02:37 10° WSW 22:07:23 33° NW 22:12:10 10° NNE visible
15 Aug 7.1 23:50:15 10° NW 23:51:14 10° NNW 23:52:13 10° NNW visible
